[[{"header":{"parameterUnit":"m.s-1","parameterCategory":1,"la1":30.2991,"la2":30.254,"lo1":-89.0895,"lo2":-89.0444,"dy":0.0017,"dx":0.0017,"nx":28,"ny":28,"refTime":"2025-08-16T21:00:00:Z","depth":0,"parameterNumber":2,"parameterNumberName":"U-component_of_WINDS"},"data":[0,0,0,0,0,0,0,0,0,0,0,0,0,0,0,0,0,0,0,0,0,0,0,0,0,0,0,0,0,0,0,0,0,0,0,0,0,0,0,0,0,0,0,0,0,0,0,0,0,0,0,0,0,0,0,0,0,0,-1.6857,-1.6855,0,-1.6735,-1.6734,-1.6732,-1.6668,-1.6668,-1.6668,-1.6667,-1.6544,-1.6541,-1.6538,0,0,0,0,0,0,0,0,0,0,0,0,0,-1.7037,-1.7034,-1.6857,-1.6855,-1.6854,-1.6735,-1.6734,-1.6732,-1.6668,-1.6668,-1.6668,-1.6667,-1.6545,-1.6542,-1.6538,0,0,0,0,0,0,0,0,0,0,0,0,0,-1.6941,-1.7033,-1.6857,-1.6807,-1.6802,-1.6736,-1.6733,-1.6731,-1.6668,-1.6668,-1.6667,-1.6667,-1.6547,-1.6542,-1.6537,-1.6512,0,0,-1.6523,-1.6521,0,0,0,0,0,0,0,0,-1.6947,-1.6935,-1.6816,-1.6811,-1.6804,-1.6716,-1.6752,-1.6658,-1.6668,-1.6719,-1.6667,-1.6667,-1.6602,-1.6593,-1.657,-1.6506,-1.65,-1.6522,-1.652,-1.6517,-1.6516,0,0,0,0,0,0,0,-1.6953,-1.694,-1.6809,-1.6815,-1.6807,-1.6792,-1.6778,-1.6734,-1.6663,-1.6714,-1.6709,-1.6696,-1.6599,-1.6575,-1.6567,-1.6499,-1.6523,-1.6518,-1.6515,-1.6514,-1.641,-1.641,0,0,0,0,0,0,-1.6968,-1.6945,-1.6812,-1.6805,-1.6876,-1.6789,-1.6774,-1.6745,-1.6663,-1.665,-1.6696,-1.6693,-1.6583,-1.6572,-1.6562,-1.6528,-1.6518,-1.6513,-1.651,-1.641,-1.641,-1.641,0,0,0,0,0,0,-1.6972,-1.6956,-1.6817,-1.6874,-1.6855,-1.6786,-1.6754,-1.6742,-1.6719,-1.6649,-1.6637,-1.6685,-1.6582,-1.6569,-1.6525,-1.6523,-1.6511,-1.6507,-1.641,-1.641,-1.641,-1.6459,0,0,0,0,0,0,-1.6977,-1.6958,-1.6947,-1.6874,-1.6852,-1.6781,-1.6754,-1.674,-1.671,-1.6706,-1.6635,-1.6623,-1.6581,-1.6533,-1.652,-1.6516,-1.6503,-1.6409,-1.641,-1.641,-1.6457,-1.646,-1.6463,0,0,0,0,0,-1.6984,-1.6965,-1.6947,-1.6931,-1.6836,-1.6781,-1.6769,-1.672,-1.671,-1.6699,-1.6655,-1.6626,-1.6525,-1.6529,-1.6514,-1.6508,-1.6409,-1.641,-1.641,-1.6455,-1.646,-1.6463,0,0,0,0,0,0,-1.7039,-1.6955,-1.6933,-1.689,-1.6843,-1.677,-1.6754,-1.6726,-1.6681,-1.6679,-1.6621,-1.6606,-1.6568,-1.6534,-1.6539,-1.6481,-1.6464,-1.6462,-1.6504,-1.6507,-1.6511,-1.652,-1.6499,0,0,0,0,0,-1.7047,-1.7008,-1.6937,-1.6906,-1.6883,-1.6823,-1.6797,-1.6764,-1.6714,-1.6694,-1.6646,-1.6599,-1.6557,-1.653,-1.6488,-1.6452,-1.6437,-1.6441,-1.6445,-1.6448,-1.6446,-1.6427,-1.6428,-1.6411,-1.6411,-1.6411,0,0,-1.7061,-1.701,-1.6989,-1.6916,-1.6875,-1.6838,-1.6807,-1.6768,-1.674,-1.6688,-1.6644,-1.6608,-1.6552,-1.6512,-1.6493,-1.6483,-1.6448,-1.6448,-1.6451,-1.6447,-1.6427,-1.6429,-1.6431,-1.6411,-1.6411,-1.6411,0,0,-1.7068,-1.7025,-1.6996,-1.6957,-1.6897,-1.6857,-1.685,-1.6782,-1.6756,-1.6711,-1.6672,-1.6639,-1.6567,-1.6529,-1.65,-1.6496,-1.6468,-1.6484,-1.6501,-1.6483,-1.6484,-1.6485,-1.6485,-1.6486,-1.6483,-1.6483,-1.6483,0,-1.7093,-1.7035,-1.6984,-1.6948,-1.6918,-1.6869,-1.684,-1.6804,-1.6734,-1.6715,-1.6705,-1.6615,-1.6574,-1.6526,-1.6525,-1.6503,-1.6495,-1.6492,-1.6488,-1.6489,-1.6489,-1.6488,-1.6488,-1.6485,-1.6485,-1.6485,-1.6485,0,-1.707,-1.703,-1.7014,-1.6947,-1.6915,-1.6882,-1.6828,-1.6802,-1.6773,-1.6735,-1.6691,-1.664,-1.6587,-1.6573,-1.6544,-1.6522,-1.6518,-1.6499,-1.6482,-1.6494,-1.6492,-1.6492,-1.6489,-1.6488,-1.6487,-1.6487,0,0,-1.7106,-1.7014,-1.7009,-1.6979,-1.6911,-1.6879,-1.6846,-1.6794,-1.6774,-1.6728,-1.6699,-1.6641,-1.6623,-1.6591,-1.6557,-1.6542,-1.6544,-1.6524,-1.6522,-1.6531,-1.6519,-1.6534,-1.6535,-1.6526,-1.6525,-1.6525,-1.6524,0,-1.7104,-1.7041,-1.6995,-1.695,-1.6914,-1.6869,-1.684,-1.6796,-1.6761,-1.6726,-1.6687,-1.6647,-1.6626,-1.6607,-1.6589,-1.6548,-1.6541,-1.6547,-1.65,-1.6499,-1.6515,-1.6533,-1.6548,-1.655,-1.6523,-1.6523,-1.6523,0,-1.7092,-1.7048,-1.6999,-1.6937,-1.692,-1.6895,-1.6845,-1.6812,-1.6762,-1.6738,-1.6703,-1.6669,-1.6634,-1.6621,-1.6572,-1.6577,-1.6556,-1.6533,-1.6532,-1.6525,-1.6511,-1.6528,-1.6549,-1.655,-1.6521,-1.6521,-1.6521,0,-1.7125,-1.7053,-1.7015,-1.6991,-1.6917,-1.6901,-1.687,-1.682,-1.6792,-1.6749,-1.6732,-1.6685,-1.666,-1.6626,-1.6581,-1.6576,-1.6538,-1.6521,-1.6518,-1.6519,-1.6512,-1.6513,-1.653,-1.6498,-1.6498,-1.6498,-1.6498,0,-1.7127,-1.7099,-1.7029,-1.7006,-1.6974,-1.6924,-1.6894,-1.6859,-1.6816,-1.6786,-1.6745,-1.6718,-1.666,-1.6627,-1.6592,-1.6558,-1.6547,-1.6528,-1.6519,-1.6531,-1.6534,-1.6516,-1.6515,-1.6498,-1.6498,-1.6498,-1.6498,0,-1.7157,-1.7109,-1.7065,-1.7,-1.6983,-1.6963,-1.6907,-1.6884,-1.6847,-1.681,-1.6799,-1.6742,-1.6701,-1.6653,-1.6597,-1.6573,-1.6543,-1.6529,-1.656,-1.6555,-1.6555,-1.6556,-1.6561,-1.656,-1.6529,-1.6529,-1.653,0,-1.7161,-1.7139,-1.7072,-1.7049,-1.7019,-1.6983,-1.6955,-1.6905,-1.6879,-1.6822,-1.6806,-1.6762,-1.6724,-1.6662,-1.6616,-1.6573,-1.6559,-1.6564,-1.6552,-1.6566,-1.656,-1.6562,-1.656,-1.6567,-1.6567,-1.6568,-1.6568,0,-1.7175,-1.7153,-1.7114,-1.7068,-1.7037,-1.6998,-1.6958,-1.6942,-1.6884,-1.6857,-1.6815,-1.6785,-1.6729,-1.6686,-1.6639,-1.6608,-1.6579,-1.6573,-1.657,-1.6583,-1.6601,-1.6592,-1.6569,-1.6572,-1.6572,-1.6572,-1.6571,-1.6571,-1.7192,-1.7171,-1.7121,-1.708,-1.7045,-1.701,-1.6985,-1.6946,-1.691,-1.686,-1.6833,-1.6792,-1.6746,-1.6679,-1.6649,-1.6618,-1.6608,-1.6603,-1.6602,-1.6602,-1.6607,-1.6607,-1.6609,-1.6609,-1.6608,-1.6608,-1.6608,0,-1.7204,-1.717,-1.7133,-1.7079,-1.7048,-1.7024,-1.6979,-1.6955,-1.6919,-1.6878,-1.6842,-1.6795,-1.6755,-1.6707,-1.6664,-1.6648,-1.6634,-1.6639,-1.664,-1.6633,-1.6617,-1.6624,-1.6651,-1.6651,-1.6651,-1.6651,-1.6651,-1.6651,-1.7206,-1.717,-1.7143,-1.709,-1.7056,-1.7016,-1.6992,-1.696,-1.6927,-1.6877,-1.6843,-1.6812,-1.6769,-1.6723,-1.6686,-1.6673,-1.666,-1.6668,-1.6652,-1.6638,-1.6634,-1.6631,-1.6637,-1.6666,-1.6666,-1.6671,-1.6671,-1.6671]},{"header":{"parameterUnit":"m.s-1","parameterCategory":1,"la1":30.2991,"la2":30.254,"lo1":-89.0895,"lo2":-89.0444,"dy":0.0017,"dx":0.0017,"nx":28,"ny":28,"refTime":"2025-08-16T21:00:00:Z","depth":0,"parameterNumber":3,"parameterNumberName":"V-component_of_WINDS"},"data":[0,0,0,0,0,0,0,0,0,0,0,0,0,0,0,0,0,0,0,0,0,0,0,0,0,0,0,0,0,0,0,0,0,0,0,0,0,0,0,0,0,0,0,0,0,0,0,0,0,0,0,0,0,0,0,0,0,0,1.1099,1.1099,0,1.1105,1.1105,1.1106,1.1126,1.1126,1.1126,1.1127,1.1131,1.1131,1.1131,0,0,0,0,0,0,0,0,0,0,0,0,0,1.1103,1.1103,1.1099,1.1099,1.1099,1.1105,1.1105,1.1106,1.1125,1.1126,1.1127,1.1127,1.1131,1.1131,1.1131,0,0,0,0,0,0,0,0,0,0,0,0,0,1.1105,1.1103,1.1099,1.111,1.1111,1.1105,1.1105,1.1106,1.1125,1.1126,1.1127,1.1127,1.1132,1.1131,1.1131,1.1114,0,0,1.1129,1.1129,0,0,0,0,0,0,0,0,1.1104,1.1104,1.1108,1.1109,1.1111,1.1115,1.1108,1.1108,1.1125,1.112,1.1127,1.1128,1.1125,1.1125,1.1125,1.1114,1.1115,1.1129,1.1129,1.1129,1.1129,0,0,0,0,0,0,0,1.1104,1.1104,1.1102,1.1109,1.111,1.1114,1.1115,1.1109,1.1119,1.112,1.1122,1.1122,1.1126,1.1125,1.1125,1.1115,1.1129,1.1129,1.1129,1.1128,1.1089,1.1089,0,0,0,0,0,0,1.1103,1.1104,1.1101,1.1102,1.1109,1.1114,1.1115,1.1113,1.1119,1.112,1.1122,1.1123,1.1126,1.1126,1.1126,1.1105,1.1129,1.1128,1.1128,1.109,1.1089,1.1088,0,0,0,0,0,0,1.1103,1.1103,1.1101,1.1103,1.1104,1.1113,1.1111,1.1113,1.1112,1.112,1.1122,1.1119,1.1126,1.1126,1.1117,1.1106,1.1128,1.1128,1.1091,1.109,1.1089,1.1065,0,0,0,0,0,0,1.1103,1.1102,1.1097,1.1103,1.1103,1.1093,1.111,1.1113,1.1112,1.1114,1.1118,1.1119,1.1127,1.1117,1.1116,1.1105,1.1127,1.1092,1.1091,1.1089,1.1067,1.1064,1.1061,0,0,0,0,0,1.1103,1.109,1.1096,1.1096,1.1096,1.1092,1.1092,1.1101,1.1111,1.1105,1.1109,1.1119,1.1108,1.1116,1.1115,1.1104,1.1093,1.1091,1.1089,1.1069,1.1064,1.1061,0,0,0,0,0,0,1.1081,1.1091,1.1098,1.1087,1.1088,1.1096,1.1088,1.1097,1.1096,1.1097,1.1109,1.1109,1.1098,1.11,1.111,1.1088,1.1102,1.11,1.1086,1.1082,1.1079,1.1078,1.1127,0,0,0,0,0,1.1075,1.1071,1.108,1.1069,1.107,1.1079,1.1077,1.1084,1.1086,1.1087,1.1091,1.1092,1.1089,1.1086,1.1083,1.1068,1.1068,1.106,1.1057,1.1054,1.1052,1.1042,1.1038,1.1083,1.1083,1.1083,0,0,1.1062,1.1067,1.1064,1.1065,1.1067,1.1062,1.1079,1.1073,1.1069,1.1086,1.1077,1.108,1.1082,1.1069,1.1064,1.1071,1.1039,1.1052,1.105,1.1049,1.104,1.1036,1.1032,1.1082,1.1082,1.1082,0,0,1.1036,1.104,1.1031,1.1033,1.1036,1.1042,1.104,1.1046,1.1048,1.104,1.1052,1.1047,1.1041,1.1041,1.1041,1.1015,1.1023,1.1014,1.0996,1.0986,1.0983,1.0979,1.0968,1.0964,1.1012,1.1012,1.1012,0,1.1019,1.1013,1.1025,1.1018,1.1017,1.1033,1.1022,1.1024,1.1026,1.1024,1.1033,1.1025,1.1028,1.1014,1.1008,1.1008,1.1004,1.1012,1.0982,1.0979,1.0977,1.0966,1.0962,1.101,1.101,1.1011,1.1011,0,1.0991,1.0986,1.0978,1.098,1.0979,1.097,1.098,1.0977,1.0985,1.099,1.098,1.0984,1.0981,1.0979,1.0986,1.0966,1.097,1.0981,1.0994,1.0971,1.0961,1.0957,1.1008,1.1009,1.1009,1.101,0,0,1.0949,1.0958,1.0955,1.0955,1.096,1.0957,1.0949,1.0947,1.0943,1.0945,1.0937,1.0932,1.0941,1.094,1.0947,1.094,1.0916,1.095,1.0951,1.0942,1.0892,1.0883,1.0878,1.0923,1.0922,1.0922,1.0891,0,1.0923,1.091,1.092,1.0905,1.09,1.0915,1.0908,1.091,1.0914,1.091,1.0915,1.091,1.0924,1.0923,1.0916,1.092,1.0906,1.0923,1.0914,1.0913,1.0911,1.0873,1.0864,1.0835,1.0888,1.0887,1.0887,0,1.089,1.0889,1.0873,1.0879,1.0877,1.087,1.0869,1.0866,1.0867,1.0871,1.0871,1.088,1.0871,1.0887,1.0874,1.0885,1.0883,1.0884,1.0883,1.0881,1.0897,1.0868,1.0826,1.0821,1.0881,1.0882,1.0882,0,1.0858,1.0854,1.0844,1.0844,1.0851,1.0845,1.0848,1.0851,1.0848,1.0847,1.0846,1.0844,1.0842,1.084,1.0848,1.0858,1.0833,1.0849,1.0834,1.0834,1.0827,1.0826,1.0782,1.0829,1.0829,1.0829,1.0829,0,1.0826,1.0815,1.0829,1.0823,1.0811,1.0823,1.0811,1.0815,1.0817,1.0811,1.0824,1.0818,1.083,1.0824,1.0831,1.0818,1.0818,1.082,1.0821,1.0817,1.0816,1.0813,1.0815,1.0828,1.0828,1.0828,1.0828,0,1.0787,1.0797,1.0786,1.0794,1.0795,1.0786,1.0792,1.0785,1.0792,1.0783,1.0782,1.0791,1.0785,1.0793,1.0789,1.0793,1.0775,1.0781,1.0774,1.0775,1.0758,1.0759,1.0708,1.0701,1.0755,1.0754,1.0754,0,1.0765,1.0757,1.0764,1.0761,1.0762,1.0757,1.0755,1.0767,1.0765,1.0766,1.0759,1.0755,1.0751,1.0741,1.0747,1.0743,1.0747,1.0729,1.0746,1.0742,1.0743,1.0743,1.0741,1.0725,1.0724,1.0724,1.0723,0,1.0723,1.0728,1.0725,1.0724,1.0721,1.0721,1.0721,1.0717,1.073,1.0726,1.072,1.0718,1.0713,1.0708,1.0705,1.0707,1.0716,1.0719,1.0714,1.0709,1.0704,1.0704,1.0762,1.0719,1.0719,1.072,1.072,1.072,1.0691,1.0684,1.0687,1.0683,1.0685,1.0684,1.0678,1.0684,1.068,1.0677,1.0684,1.0676,1.0678,1.0676,1.0676,1.0669,1.0677,1.0671,1.0669,1.0667,1.0663,1.0708,1.0669,1.0669,1.067,1.067,1.067,0,1.0647,1.065,1.0647,1.0647,1.0643,1.0655,1.0655,1.0651,1.0644,1.0646,1.0642,1.0635,1.063,1.0635,1.0631,1.0624,1.0628,1.0622,1.0622,1.0621,1.0658,1.0661,1.0619,1.0619,1.0619,1.0619,1.0619,1.0619,1.0624,1.0612,1.0618,1.0607,1.061,1.0603,1.0602,1.0602,1.0602,1.0594,1.059,1.0594,1.0596,1.0592,1.0588,1.0589,1.0586,1.0578,1.058,1.0614,1.0619,1.0624,1.0626,1.0577,1.0577,1.0544,1.0543,1.0543]}]]